#timestamp,LO_Frequency,Hit,StdDev 
1515150015.4,286047006.6,N
1515150035.2,286047004.6,N
1515150055.0,286047006.0,N
1515150055.9,286047006.0,N
1515150075.7,286047007.5,N
1515150095.6,286047007.5,N
1515150115.4,286047007.3,N
1515150135.2,286047010.1,N
1515150155.1,286047009.4,N
1515150156.0,286047009.4,N
1515150175.8,286047012.4,N
1515150195.6,286047013.3,N
1515150215.5,286047013.8,N
1515150235.3,286047010.9,N
1515150255.1,286047013.9,N
1515150275.9,286047010.1,N
1515150295.7,286047012.3,N
1515150315.5,286047010.2,N
1515150335.4,286047007.0,N
1515150355.2,286047006.7,N
1515150375.0,286047008.0,N
1515150375.9,286047008.0,N
1515150395.7,286047006.3,N
1515150415.6,286047007.7,N
1515150435.4,286047007.4,N
1515150455.2,286047007.0,N
1515150475.1,286047001.7,N
1515150476.0,286047001.7,N
1515150495.8,286047004.7,N
1515150515.6,286047004.6,N
1515150535.5,286047002.9,N
1515150555.3,286047002.5,N
1515150575.1,286046998.8,N
1515150595.9,286047024.9,Y
1515150615.7,286047036.1,P
1515150635.5,286047032.4,N
1515150655.4,286047053.4,P
1515150675.2,286047026.9,N
1515150695.0,286047014.2,N
1515150695.9,286047014.2,N
1515150715.8,286047010.4,N
1515150735.6,286047003.4,N
1515150755.4,286046998.3,N
1515150775.3,286046998.3,N
1515150795.1,286047000.9,N
1515150796.0,286047000.9,N
1515150815.8,286047001.1,N
1515150835.6,286046995.4,N
1515150855.5,286046990.2,N
1515150875.3,286046992.6,N
1515150895.1,286046993.9,N
1515150915.9,286046994.5,N
1515150935.7,286046996.1,N
1515150955.5,286046998.6,N
1515150975.4,286047004.0,N
1515150995.2,286047004.0,N
1515151015.0,286047004.8,N
1515151015.9,286047004.8,N
1515151035.8,286047005.3,N
1515151055.6,286047005.9,N
1515151075.4,286047005.4,N
1515151095.3,286047006.6,N
1515151115.1,286047009.4,N
1515151116.0,286047009.4,N
1515151135.8,286047010.3,N
1515151155.7,286047007.0,N
1515151175.5,286047009.4,N
1515151195.3,286047011.0,N
1515151215.1,286047007.7,N
1515151235.9,286047006.8,N
1515151255.7,286047003.1,N
1515151275.5,286047000.4,N
1515151295.4,286047000.8,N
1515151315.2,286047004.2,N
1515151335.0,286047004.6,N
1515151335.9,286047004.6,N
1515151355.8,286047005.9,N
1515151375.6,286047004.7,N
1515151395.4,286047003.1,N
1515151415.3,286047003.8,N
1515151435.1,286047005.3,N
1515151436.0,286047005.3,N
1515151455.8,286047005.6,N
1515151475.7,286047007.5,N
1515151495.5,286047010.0,Y
1515151515.3,286047004.3,P
1515151535.2,286046998.7,N
1515151555.9,286046996.9,N
1515151575.7,286047000.6,N
1515151595.5,286047001.4,N
1515151615.4,286047007.5,N
1515151635.2,286047011.3,Y
1515151655.0,286047009.4,P
1515151656.0,286047009.4,N
1515151675.8,286047013.7,P
1515151695.6,286047012.2,N
1515151715.4,286047006.6,N
1515151735.3,286047005.9,N
1515151755.1,286047005.1,N
1515151775.8,286047001.7,N
1515151795.7,286047000.2,N
1515151815.5,286047002.2,N
1515151835.3,286047000.5,N
1515151855.2,286046997.7,N
1515151875.9,286046993.7,N
1515151895.7,286046992.2,N
1515151915.6,286046993.5,N
1515151935.4,286046992.2,N
1515151955.2,286046992.3,N
1515151975.0,286046991.5,N
1515151975.9,286046991.5,N
1515151995.8,286046987.2,N
1515152015.6,286046992.8,N
1515152035.4,286046992.0,N
1515152055.3,286046992.3,N
1515152075.1,286046994.0,N
1515152095.8,286046992.9,N
1515152115.7,286046991.6,N
1515152135.5,286046985.3,N
1515152155.3,286046988.2,N
1515152175.2,286046987.0,N
1515152195.9,286046986.1,N
1515152215.7,286046984.1,N
1515152235.6,286046983.9,N
1515152255.4,286046983.3,N
1515152275.2,286046980.7,N
1515152295.0,286046983.5,N
1515152295.9,286046983.5,N
1515152315.8,286046982.4,N
1515152335.6,286046980.9,Y
1515152355.4,286046991.7,P
1515152375.3,286046996.1,P
1515152395.1,286046999.2,N
1515152415.8,286047000.6,N
1515152435.7,286046998.6,N
1515152455.5,286047000.4,N
1515152475.3,286046996.8,N
1515152495.2,286046998.0,N
1515152515.9,286046997.0,N
1515152535.7,286046997.2,N
1515152555.6,286046996.3,N
1515152575.4,286046996.7,N
1515152595.2,286046995.7,N
1515152615.1,286046995.4,N
1515152616.0,286046995.4,N
1515152635.8,286046998.9,N
1515152655.6,286046998.5,N
1515152675.5,286046998.5,N
1515152695.3,286046999.3,N
1515152715.1,286047000.5,N
1515152735.8,286047000.8,N
1515152755.7,286047001.2,N
1515152775.5,286046999.5,N
1515152795.3,286046997.7,N
1515152815.2,286046997.5,N
1515152835.9,286046996.4,N
1515152855.7,286046995.4,N
1515152875.6,286046997.9,N
1515152895.4,286046997.3,N
1515152915.2,286046992.0,Y
1515152935.1,286046998.0,P
1515152936.0,286046998.0,P
1515152955.8,286046996.3,P
1515152975.6,286046995.2,Y
1515152995.5,286046998.3,P
1515153015.3,286047002.5,P
1515153035.1,286046999.0,N
1515153055.9,286046999.7,N
1515153075.7,286046999.3,N
1515153095.5,286047000.0,N
1515153115.4,286046998.6,N
1515153135.2,286046998.3,N
1515153155.0,286046998.6,N
1515153155.9,286046998.6,N
1515153175.7,286047000.4,N
1515153195.6,286047000.3,N
1515153215.4,286046999.9,N
1515153235.2,286047001.6,N
1515153255.1,286047000.5,N
1515153256.0,286047000.5,N
1515153275.8,286046996.6,N
1515153295.6,286047001.0,N
1515153315.5,286046998.5,N
1515153335.3,286046998.4,N
1515153355.1,286046999.1,N
1515153375.9,286046995.7,Y
1515153395.7,286046995.1,P
1515153415.5,286046994.0,N
1515153435.4,286046992.4,P
1515153455.2,286046993.9,N
1515153475.0,286046992.5,Y
1515153475.9,286046992.5,P
1515153495.8,286046997.1,N
1515153515.6,286046995.4,N
1515153535.4,286046994.9,Y
1515153555.3,286047004.0,P
1515153575.1,286047002.9,N
1515153576.0,286047002.9,N
1515153595.8,286047002.0,N
